Temperature
16 17 17 17 20 21 21 21 21 20 20 18 18 19 20 20 20 19 14 14 14 14 14 14 14 14 15 15 15 15 15 15 15 15 15 15 15 15 15 15 15 14 15 15 15 15 15 15 15
16 16 17 18 21 21 21 21 20 20 18 16 16 18 18 17 15 14 13 14 14 14 14 14 14 14 14 15 15 15 15 15 15 15 15 15 15 15 14 14 14 14 14 14 14 14 15 15 15
16 16 17 20 20 21 21 20 19 18 16 16 17 16 17 16 13 13 13 14 14 14 14 14 14 14 14 14 14 14 14 14 14 15 15 15 15 15 14 14 14 14 14 14 14 14 14 15 15
16 16 18 20 20 20 20 19 18 17 16 16 17 16 14 13 12 13 13 14 13 13 13 14 14 14 14 14 14 14 14 14 14 14 14 14 14 14 14 14 14 14 14 14 14 14 14 14 14
15 17 19 19 19 19 19 18 17 18 18 16 16 17 14 12 13 13 13 13 13 13 13 13 14 14 14 14 14 14 14 14 14 14 14 14 14 14 14 14 14 14 14 14 14 14 14 14 14
16 18 19 19 19 18 18 16 17 17 17 16 16 16 14 12 13 13 13 13 13 13 13 13 14 13 14 14 14 14 14 14 14 14 14 14 14 14 14 14 14 14 14 14 14 14 14 14 14
16 18 18 19 18 18 17 16 16 17 17 15 15 16 13 12 12 12 13 13 13 13 13 13 13 13 13 13 13 14 14 14 14 14 14 14 14 14 14 13 13 13 13 13 13 13 13 14 13
15 17 17 18 18 17 16 15 15 16 16 13 14 16 14 12 12 12 12 12 13 13 13 13 13 13 13 13 13 13 13 13 13 14 13 13 13 13 13 13 13 13 13 13 13 13 13 13 13
14 16 17 17 17 17 15 15 13 12 13 12 12 13 12 12 12 12 12 12 12 12 13 13 13 13 13 13 13 13 13 13 13 13 13 13 13 13 13 12 12 12 13 13 13 13 13 13 13
14 16 16 16 16 16 15 15 14 13 14 13 12 11 11 11 11 11 11 12 12 12 12 12 12 12 12 12 13 13 13 13 13 13 13 12 12 12 12 12 12 12 12 12 12 12 12 12 12
14 15 14 14 13 14 14 14 13 14 15 14 13 11 11 11 11 11 11 11 12 12 12 12 12 12 12 12 12 12 12 12 12 12 12 12 12 12 12 12 12 12 12 12 12 12 12 12 12
13 12 12 13 11 12 13 13 13 13 14 12 12 11 11 11 10 10 11 11 11 11 12 12 12 12 12 12 12 12 12 12 12 12 12 12 12 12 12 11 11 11 11 11 11 11 11 11 11
13 12 11 11 11 11 11 12 12 12 11 11 11 11 11 11 10 10 10 10 11 11 11 11 12 12 12 12 12 12 12 12 12 12 12 11 11 11 11 11 11 11 11 11 11 11 11 11 11
11 11 11 11 11 11 12 12 12 11 10 10 10 10 10 10 10 10 10 10 11 11 11 11 11 11 11 11 12 12 11 11 11 11 11 11 11 11 11 11 11 11 11 11 11 11 11 11 11
10 11 11 11 11 11 12 12 12 11 10 10 10 10 10 10 10 10 10 10 11 11 11 11 11 11 11 11 11 11 11 11 11 11 11 11 10 10 10 10 10 10 10 10 10 10 10 10 10
11 12 12 12 11 11 12 13 13 10 10 10 10 10 9 9 9 10 10 10 10 10 11 11 11 11 11 11 11 11 11 11 11 10 10 10 10 10 10 10 10 10 10 10 10 10 10 10 10
11 12 12 12 11 11 12 13 12 9 9 10 9 9 9 9 9 9 9 10 10 10 10 10 10 10 10 10 10 10 10 10 10 10 10 10 10 10 9 9 9 9 9 9 9 9 9 9 9
11 12 12 12 11 11 11 12 11 9 9 10 9 9 9 9 9 9 9 9 10 10 10 10 10 10 10 10 10 10 10 10 10 10 9 9 9 9 9 9 9 9 9 9 9 9 9 9 9
11 11 11 11 10 10 11 11 11 10 9 9 9 9 9 9 9 9 9 9 9 9 9 9 10 10 10 9 9 9 9 9 9 9 9 9 9 9 9 9 9 9 8 8 8 8 8 8 8
10 10 10 9 9 9 10 10 11 10 10 10 9 9 8 8 8 8 8 8 9 9 9 9 9 9 9 9 9 9 9 9 9 9 9 9 9 9 8 8 8 8 8 8 8 8 8 7 7
9 10 10 9 9 9 9 11 11 11 9 9 8 9 8 8 8 8 8 8 8 8 9 9 9 9 9 9 9 8 8 8 8 8 8 8 8 8 8 8 8 7 7 7 7 7 7 7 6
9 9 9 8 9 9 9 10 12 11 10 9 9 8 8 8 7 7 7 8 8 8 8 8 8 9 8 8 8 8 8 8 8 8 8 8 8 8 8 7 7 7 7 7 7 7 6 6 6
8 8 8 8 8 8 8 8 12 10 10 10 10 8 8 7 7 7 7 7 7 8 8 8 8 8 8 8 8 8 8 7 7 7 7 7 7 7 7 7 7 7 7 6 6 6 6 6 5
7 7 7 8 8 8 8 9 11 11 10 11 10 8 7 7 6 6 6 6 7 7 7 7 8 8 8 8 8 7 7 7 7 7 7 7 7 7 7 6 6 6 6 6 6 6 5 5 5
7 8 8 8 7 9 8 8 10 11 9 9 9 8 7 6 5 5 6 6 6 7 7 7 7 7 7 7 7 7 7 7 7 6 6 6 6 6 6 6 6 6 6 5 5 5 5 5 4
7 8 8 8 9 9 6 8 11 8 7 6 6 6 5 5 5 5 5 5 6 6 6 6 6 7 7 7 7 7 6 6 6 6 6 6 6 5 6 6 5 5 5 5 5 5 4 4 4
6 7 7 7 6 7 9 9 9 8 7 6 5 5 5 4 4 4 5 5 5 6 6 6 6 6 6 6 6 6 6 6 6 5 5 5 5 5 5 5 5 5 5 5 4 4 4 4 3
6 6 6 6 7 8 9 9 10 8 8 7 6 5 4 4 4 4 4 5 5 5 5 5 5 5 6 6 6 5 5 5 5 5 5 4 4 4 4 4 4 4 4 4 4 4 3 3 3
4 5 5 6 7 8 9 10 8 8 7 7 6 4 4 4 4 4 4 4 4 4 5 5 5 5 5 5 5 5 5 5 5 4 4 4 4 4 4 4 4 3 3 3 3 3 3 3 2
4 5 5 6 6 6 8 9 6 6 5 5 4 3 3 3 3 3 3 3 4 4 4 4 4 4 4 4 4 4 4 4 4 4 4 3 3 3 3 3 3 3 3 3 3 2 2 2 2
Wind_Speed
4 1 1 2 4 4 6 5 4 5 4 3 3 3 3 1 0 3 4 5 5 7 7 9 9 9 10 11 11 12 12 12 12 12 13 13 13 13 13 13 13 13 13 13 13 13 13 13 13
2 1 2 3 5 7 6 5 7 4 4 5 3 2 2 2 3 4 4 4 6 7 7 8 10 9 10 11 11 11 12 12 12 12 12 12 13 12 12 12 12 12 13 12 13 13 13 13 13
1 1 3 3 6 8 6 5 5 4 4 3 3 1 1 2 3 3 4 5 6 7 7 8 10 10 10 11 11 11 12 12 12 11 11 12 12 12 12 12 12 12 12 12 12 12 12 12 12
2 3 2 5 8 6 4 4 5 6 4 2 3 4 3 3 2 3 5 6 7 7 7 9 9 10 10 11 11 11 12 12 12 11 11 11 11 12 12 12 11 11 11 11 11 11 11 10 10
1 3 5 7 8 5 3 3 5 5 4 4 4 3 3 2 3 5 6 6 7 6 7 9 8 10 10 10 11 11 11 12 12 11 11 11 11 11 11 11 11 11 11 11 10 10 9 9 9
3 3 7 10 9 5 4 4 4 4 4 4 4 4 3 3 4 5 6 6 6 6 7 8 8 9 10 10 10 11 11 11 11 11 11 11 11 10 10 10 10 10 10 9 9 9 8 8 8
3 4 7 8 8 7 5 4 5 5 5 4 3 4 4 4 4 6 6 5 6 6 6 6 7 9 9 9 10 10 11 11 11 11 10 10 10 10 10 9 9 9 9 9 8 8 8 7 7
2 3 6 8 9 7 5 4 3 4 3 2 2 4 4 5 5 6 6 6 6 5 5 5 6 7 8 8 9 10 10 10 10 10 10 10 10 10 9 9 8 8 8 7 7 7 7 7 7
2 5 8 8 8 6 6 4 2 1 4 3 1 0 3 7 8 7 6 5 5 5 4 4 5 5 7 7 8 9 9 9 9 9 9 8 7 7 6 7 8 7 7 6 6 6 6 5 6
3 7 8 4 4 4 7 5 4 5 5 4 3 3 6 8 8 8 7 7 6 5 4 3 5 5 6 6 7 6 6 6 6 6 6 5 5 5 5 7 7 6 6 5 5 4 4 3 3
2 4 4 2 1 3 5 5 4 5 5 5 6 7 8 8 8 7 7 6 6 5 4 3 4 5 5 5 5 4 4 4 4 5 5 5 5 4 4 3 3 4 4 3 3 3 3 2 3
2 2 2 2 1 3 4 4 4 5 4 1 4 8 9 9 9 8 7 6 5 5 4 3 4 4 4 5 5 4 4 4 4 4 4 4 3 3 3 2 2 2 2 2 2 1 2 2 2
5 3 1 0 1 2 3 4 4 4 3 1 4 7 9 9 8 7 6 5 5 5 4 4 4 4 4 4 4 4 4 4 4 4 4 3 3 2 2 2 2 2 1 1 1 1 1 1 1
3 3 2 1 2 2 3 3 4 5 3 4 5 7 7 8 8 7 6 6 6 5 5 4 4 4 4 3 4 4 4 4 4 4 4 3 3 2 2 1 1 1 1 1 1 1 1 1 1
3 3 3 3 4 3 4 6 8 6 5 5 6 6 6 6 7 7 7 6 6 5 5 5 5 4 4 4 3 3 4 4 4 3 3 3 3 2 2 1 1 1 1 0 1 1 1 1 2
3 4 5 3 4 4 6 9 6 4 6 6 6 6 6 6 7 6 6 5 6 6 5 6 5 5 5 4 3 3 3 4 3 3 3 3 3 2 2 1 0 1 0 0 0 0 1 1 2
4 6 7 4 3 4 7 8 4 4 6 7 7 7 7 6 6 6 6 6 6 6 6 6 6 5 5 4 4 3 3 3 3 3 2 2 2 2 2 1 1 0 0 1 1 1 1 2 2
7 7 7 7 3 5 8 9 6 5 7 8 8 7 7 7 7 6 5 5 5 5 6 6 6 6 5 5 4 3 3 2 2 2 2 2 2 2 2 1 1 1 0 0 0 1 1 1 2
5 7 7 5 2 5 9 10 9 7 8 9 9 9 9 9 7 5 5 5 5 5 6 6 7 6 5 4 4 3 3 2 1 2 2 2 2 2 2 1 1 1 1 0 1 1 1 1 2
7 7 7 3 2 4 7 11 10 9 10 10 11 10 10 9 8 7 6 6 6 6 5 6 6 7 6 5 4 3 3 2 1 1 2 1 1 2 2 1 1 1 1 1 1 1 1 1 1
8 9 8 5 3 3 6 9 9 7 7 8 9 10 11 10 10 9 8 8 7 7 7 6 7 7 6 6 4 3 2 2 2 1 1 1 1 1 2 1 1 1 2 2 2 2 2 1 1
8 6 6 5 4 3 3 6 8 7 7 8 9 9 10 10 10 9 9 8 8 7 6 6 7 7 7 6 6 6 4 4 3 2 2 2 2 2 1 1 2 1 1 2 2 2 2 3 2
3 2 4 5 5 5 6 6 7 5 8 10 9 9 9 8 9 8 8 8 7 6 6 6 6 7 7 7 7 7 5 3 2 2 2 2 1 2 1 1 2 2 2 2 2 3 3 3 3
4 3 2 2 4 7 9 9 8 6 9 8 8 7 6 6 6 7 6 6 6 5 5 5 6 5 6 6 7 7 7 5 4 3 3 2 1 1 1 2 2 2 2 2 3 3 3 3 3
5 5 3 4 5 7 5 8 9 5 5 7 7 6 5 4 5 5 5 6 5 5 5 5 6 5 5 6 6 7 7 6 5 4 3 3 2 2 2 2 2 2 2 3 3 3 3 4 4
7 7 5 5 6 4 4 9 6 2 3 4 4 4 4 4 4 5 5 5 5 5 5 5 6 5 5 5 5 6 6 5 4 4 3 3 2 2 2 2 2 2 3 3 3 3 3 3 4
5 6 3 1 1 5 6 6 7 4 4 2 2 2 3 3 4 4 4 5 5 6 6 5 5 5 5 5 5 5 5 5 4 4 3 2 2 2 2 2 2 2 2 3 3 3 3 3 3
3 4 4 5 5 7 7 8 6 5 6 4 3 3 3 3 3 3 3 4 4 5 5 4 4 4 4 4 4 4 4 4 4 4 3 3 3 2 3 2 2 2 2 2 2 2 3 3 3
4 5 4 4 4 5 6 5 2 4 4 5 5 4 4 4 3 3 3 3 3 4 4 4 4 4 4 4 4 4 4 4 4 4 4 3 3 3 3 2 2 2 2 2 2 2 3 3 3
5 6 7 5 5 5 6 5 1 2 3 3 4 3 3 2 2 2 2 2 3 4 4 4 4 4 4 3 3 3 3 3 4 4 3 3 3 3 3 3 3 3 3 2 3 3 3 3 3
Wind_Direction
312 299 228 212 213 214 217 200 187 163 155 141 137 160 163 160 16 93 98 120 123 137 139 139 128 125 121 114 109 108 105 100 97 96 94 93 91 89 87 86 83 81 80 81 81 80 79 78 77
295 219 206 213 221 213 207 196 188 175 133 128 135 155 145 116 54 88 115 120 132 133 135 135 126 124 122 118 113 110 108 105 100 96 93 91 90 90 89 86 83 81 80 80 80 80 79 79 78
210 231 207 201 218 219 199 171 169 149 140 154 143 118 117 103 98 110 105 132 135 129 130 126 126 123 123 120 115 112 109 106 102 98 95 93 92 89 87 84 82 81 81 80 79 79 80 79 77
214 187 201 218 213 217 214 156 150 152 151 156 156 130 109 65 88 107 123 135 136 131 128 125 128 128 124 121 117 114 112 108 105 101 98 95 94 92 89 86 83 81 80 80 79 78 78 78 77
232 204 202 212 217 208 199 168 167 176 163 157 168 147 125 92 94 119 131 133 134 128 125 128 128 129 126 123 119 115 115 110 106 101 99 98 95 93 91 89 86 83 80 79 78 77 76 74 74
191 207 215 215 207 200 195 184 185 188 173 161 166 157 125 117 125 128 130 131 130 128 125 126 122 127 126 124 119 115 117 114 109 104 100 96 92 92 91 89 87 84 80 77 75 72 71 69 69
213 204 221 216 207 207 205 195 202 193 187 184 180 162 145 147 131 135 132 126 124 123 125 125 136 135 127 120 116 114 115 113 109 105 101 97 93 89 85 86 85 83 79 76 72 71 68 64 63
231 198 209 210 208 210 184 176 200 207 191 155 195 186 168 157 143 143 135 128 123 120 124 128 137 143 141 133 118 115 112 112 110 106 103 100 96 92 86 81 76 78 78 75 72 70 69 66 64
212 216 217 211 208 200 175 186 178 175 157 156 172 4 108 137 146 146 143 139 135 130 129 130 134 138 141 139 130 124 117 113 114 110 107 110 109 102 95 81 74 71 71 71 70 68 67 68 74
206 218 223 223 216 192 178 190 176 173 185 187 170 140 131 145 154 160 164 163 160 156 149 143 143 141 143 138 136 135 132 128 124 121 120 117 110 101 94 88 79 74 70 72 70 73 78 65 66
209 221 211 208 186 185 183 189 184 189 209 210 196 170 155 159 165 174 178 177 173 165 154 152 149 145 144 139 136 132 128 129 126 123 122 117 109 105 99 100 93 82 75 68 69 78 60 46 46
190 212 213 204 194 199 195 187 192 218 233 224 188 165 164 170 177 184 183 184 179 170 167 156 146 150 146 144 138 136 131 129 125 125 126 121 108 103 97 90 83 77 65 48 38 25 36 35 42
211 210 196 126 139 168 172 199 213 230 244 160 151 163 172 177 182 185 184 184 184 177 176 165 152 149 147 145 143 137 132 130 129 127 131 124 118 113 106 90 78 61 48 37 14 360 5 12 21
187 188 195 229 219 216 200 233 231 236 200 175 168 173 180 182 183 187 191 190 189 186 183 168 155 151 145 140 140 140 141 135 134 130 125 125 121 118 115 107 72 39 26 17 1 358 346 347 356
166 175 210 232 226 218 210 244 232 226 203 201 200 191 187 192 191 197 198 198 195 192 186 173 162 154 148 144 140 138 141 140 135 130 131 130 123 123 119 109 88 29 14 4 9 22 359 350 341
181 205 220 212 214 212 217 242 226 207 201 211 212 207 197 199 203 208 205 200 199 192 185 174 161 159 154 148 141 130 137 139 134 133 137 138 135 132 119 108 79 15 56 23 12 5 342 319 317
198 218 225 215 207 207 218 245 233 202 207 216 214 214 211 209 212 215 214 208 203 194 184 174 165 163 159 149 140 133 123 126 133 136 133 141 148 156 142 126 98 77 53 14 345 333 313 304 313
208 216 224 224 201 220 230 246 248 229 228 228 224 221 219 221 224 220 218 216 209 200 188 179 172 166 161 155 147 135 126 121 127 123 134 154 162 169 155 139 127 102 96 49 319 326 322 303 308
214 216 228 243 257 239 241 253 256 246 235 234 231 229 226 228 229 221 217 212 204 199 195 187 182 172 167 166 169 166 170 167 145 131 136 171 175 169 162 154 155 168 199 221 259 284 297 314 317
214 220 235 256 257 248 256 263 261 246 237 236 233 230 228 226 224 221 215 209 206 201 199 195 190 184 179 178 176 176 172 171 162 141 148 164 180 180 181 184 184 201 205 213 250 265 276 300 315
220 228 231 239 273 252 272 266 246 237 235 239 240 237 233 226 221 217 214 211 208 207 207 204 196 189 186 180 163 149 149 154 179 185 180 170 165 177 183 193 204 212 212 217 224 235 249 265 276
230 233 223 218 229 243 240 264 244 234 241 241 238 234 233 230 226 220 213 212 212 211 209 208 201 191 188 183 180 181 190 199 208 207 206 188 192 190 188 202 212 221 228 228 230 231 243 241 246
215 181 201 219 233 252 233 248 257 226 241 241 237 233 231 229 225 222 216 214 213 208 204 205 201 194 188 188 189 188 195 202 189 187 197 199 196 201 197 208 224 225 232 234 241 244 243 244 249
162 148 156 212 229 243 227 230 258 227 235 242 237 233 229 226 224 220 216 210 207 202 196 196 192 191 187 186 189 192 190 189 183 187 192 210 216 222 219 217 222 238 246 240 243 245 244 248 251
184 177 197 212 220 237 203 230 250 247 249 256 254 247 236 225 218 211 206 207 204 199 192 190 184 183 183 186 189 191 189 186 192 197 197 203 220 235 228 232 234 234 238 240 244 245 249 250 248
199 205 212 224 230 237 210 235 248 258 291 287 275 266 236 222 219 217 213 211 207 201 192 187 187 184 183 184 187 187 186 188 192 196 199 206 220 227 234 238 249 249 241 239 240 246 248 249 250
189 210 231 217 274 254 237 251 266 240 258 256 269 258 231 223 224 226 223 213 205 201 196 191 189 188 187 187 181 182 182 183 182 185 191 201 208 218 221 232 240 253 252 243 236 239 246 250 253
237 175 178 201 221 243 248 246 240 223 237 245 258 263 252 236 234 237 232 218 207 200 193 188 187 188 189 188 184 182 184 184 183 186 192 197 205 216 219 224 232 243 246 247 240 244 246 248 257
185 189 204 204 238 241 251 246 222 241 238 240 249 259 250 234 232 236 235 222 201 190 184 181 182 182 185 186 183 181 185 184 184 192 198 201 203 210 218 224 229 238 242 243 240 247 247 244 251
236 215 198 210 220 231 257 264 73 262 265 252 259 265 260 247 252 252 236 213 194 190 187 185 184 182 184 182 176 184 188 185 190 196 201 201 202 207 215 219 226 236 241 241 242 243 245 247 250
Height
1515 1516 1518 1520 1520 1516 1514 1514 1516 1518 1520 1523 1524 1524 1523 1524 1526 1533 1534 1533 1535 1537 1538 1540 1541 1543 1543 1544 1544 1545 1545 1546 1546 1546 1546 1546 1546 1547 1546 1546 1546 1546 1545 1545 1545 1545 1544 1544 1544
1515 1516 1519 1520 1515 1516 1515 1513 1517 1518 1522 1525 1526 1526 1526 1528 1530 1532 1532 1533 1535 1537 1539 1540 1542 1543 1544 1545 1545 1546 1546 1547 1547 1547 1547 1548 1548 1548 1548 1548 1547 1547 1547 1547 1546 1546 1546 1545 1545
1515 1516 1519 1516 1512 1511 1512 1514 1517 1522 1524 1525 1526 1527 1528 1530 1531 1531 1532 1533 1536 1538 1540 1541 1542 1544 1545 1546 1546 1547 1547 1547 1548 1548 1548 1548 1549 1549 1549 1549 1549 1548 1548 1548 1548 1547 1547 1547 1546
1515 1518 1518 1514 1512 1512 1512 1515 1520 1522 1524 1525 1526 1527 1529 1530 1531 1531 1532 1534 1536 1538 1540 1541 1543 1544 1545 1546 1547 1547 1548 1548 1548 1549 1549 1549 1549 1549 1550 1550 1550 1549 1549 1549 1549 1549 1548 1548 1548
1514 1516 1513 1513 1513 1514 1516 1519 1521 1520 1522 1525 1526 1526 1529 1530 1530 1531 1532 1534 1537 1539 1540 1542 1543 1545 1546 1546 1547 1548 1548 1549 1549 1549 1549 1550 1550 1550 1550 1550 1550 1550 1550 1550 1550 1550 1549 1549 1549
1515 1513 1510 1510 1512 1515 1518 1521 1521 1521 1523 1525 1526 1527 1530 1530 1530 1531 1533 1535 1537 1539 1540 1541 1543 1545 1546 1547 1548 1548 1549 1549 1549 1550 1550 1550 1550 1551 1551 1551 1551 1551 1551 1550 1550 1550 1550 1550 1549
1514 1511 1508 1508 1511 1514 1518 1521 1521 1521 1523 1525 1526 1527 1529 1530 1530 1532 1533 1535 1537 1539 1540 1542 1543 1544 1546 1547 1548 1548 1549 1549 1549 1550 1550 1551 1551 1551 1551 1551 1551 1551 1551 1551 1550 1550 1550 1550 1550
1513 1512 1510 1510 1511 1513 1518 1521 1522 1522 1523 1525 1527 1527 1528 1530 1530 1532 1533 1535 1537 1538 1540 1541 1543 1544 1545 1546 1547 1548 1549 1549 1550 1550 1551 1551 1551 1551 1551 1551 1551 1551 1551 1551 1551 1550 1550 1550 1550
1513 1513 1508 1508 1510 1513 1518 1520 1522 1523 1524 1524 1525 1527 1527 1528 1529 1531 1533 1535 1536 1537 1539 1540 1542 1543 1544 1546 1547 1548 1549 1549 1550 1550 1550 1551 1551 1551 1551 1551 1551 1551 1551 1551 1551 1550 1550 1550 1550
1512 1509 1507 1511 1512 1514 1517 1519 1521 1522 1522 1524 1525 1526 1526 1527 1529 1531 1532 1533 1535 1536 1538 1539 1541 1542 1543 1545 1546 1547 1548 1548 1549 1549 1550 1550 1550 1551 1551 1551 1551 1551 1551 1550 1550 1550 1550 1550 1549
1511 1509 1511 1514 1515 1516 1517 1519 1520 1520 1520 1521 1523 1524 1525 1526 1528 1530 1531 1533 1534 1536 1537 1538 1540 1541 1542 1543 1545 1546 1547 1548 1548 1549 1549 1549 1550 1550 1550 1550 1550 1550 1550 1550 1550 1549 1549 1549 1548
1512 1513 1514 1515 1516 1517 1517 1518 1520 1520 1520 1521 1522 1523 1524 1525 1527 1529 1530 1532 1533 1534 1536 1537 1538 1540 1541 1542 1543 1545 1545 1546 1547 1547 1548 1548 1549 1549 1549 1549 1549 1549 1549 1549 1549 1548 1548 1548 1547
1512 1514 1515 1516 1516 1517 1518 1518 1519 1519 1520 1520 1521 1522 1523 1524 1526 1528 1530 1531 1532 1533 1534 1536 1537 1538 1539 1541 1542 1543 1544 1545 1546 1547 1547 1547 1547 1548 1548 1548 1548 1548 1548 1548 1548 1547 1547 1547 1546
1513 1514 1515 1516 1516 1517 1517 1518 1518 1517 1519 1519 1520 1521 1522 1523 1524 1526 1527 1528 1530 1531 1533 1534 1535 1537 1538 1539 1540 1541 1543 1544 1545 1545 1546 1546 1546 1546 1546 1547 1547 1547 1547 1546 1546 1546 1546 1545 1545
1514 1514 1515 1515 1515 1516 1517 1515 1515 1516 1518 1518 1518 1519 1520 1522 1523 1524 1525 1526 1528 1529 1531 1532 1533 1535 1536 1537 1539 1540 1541 1542 1543 1544 1544 1545 1545 1545 1545 1545 1545 1545 1545 1545 1545 1545 1544 1543 1543
1513 1512 1510 1512 1514 1515 1517 1510 1512 1515 1516 1516 1517 1518 1519 1520 1521 1522 1523 1524 1526 1527 1529 1530 1531 1533 1534 1535 1537 1538 1539 1540 1541 1542 1542 1543 1543 1543 1543 1543 1544 1543 1543 1543 1543 1543 1542 1542 1541
1510 1507 1506 1510 1513 1513 1513 1508 1511 1513 1514 1515 1515 1516 1517 1518 1519 1520 1521 1522 1524 1525 1526 1528 1529 1531 1532 1533 1534 1536 1537 1538 1539 1540 1540 1541 1541 1541 1542 1542 1542 1542 1541 1541 1541 1541 1541 1540 1539
1505 1504 1506 1507 1511 1512 1510 1508 1510 1512 1513 1512 1513 1514 1515 1515 1516 1517 1518 1520 1521 1522 1524 1525 1527 1528 1530 1531 1532 1533 1534 1535 1536 1537 1538 1539 1539 1539 1539 1540 1540 1540 1540 1539 1539 1539 1539 1538 1537
1505 1505 1506 1508 1512 1512 1508 1506 1507 1509 1510 1510 1510 1511 1511 1512 1514 1515 1515 1516 1518 1519 1521 1522 1524 1526 1527 1528 1529 1530 1531 1532 1533 1534 1535 1536 1537 1537 1537 1537 1537 1537 1537 1537 1537 1537 1536 1536 1535
1507 1507 1507 1510 1513 1511 1508 1505 1504 1505 1505 1506 1506 1507 1508 1509 1510 1511 1512 1513 1514 1516 1517 1519 1521 1522 1524 1526 1527 1528 1529 1530 1531 1531 1532 1533 1534 1534 1535 1535 1535 1535 1535 1535 1535 1534 1534 1534 1533
1506 1505 1505 1508 1511 1511 1509 1499 1497 1498 1501 1502 1502 1503 1504 1504 1506 1507 1508 1509 1510 1512 1514 1515 1517 1519 1521 1523 1525 1526 1527 1527 1528 1528 1529 1530 1531 1531 1532 1532 1532 1532 1532 1532 1532 1532 1532 1531 1531
1504 1507 1508 1510 1509 1506 1509 1499 1490 1493 1496 1497 1498 1498 1499 1500 1502 1503 1504 1505 1506 1508 1510 1512 1514 1515 1517 1519 1521 1522 1523 1524 1525 1526 1526 1527 1528 1528 1528 1529 1529 1529 1529 1529 1529 1529 1529 1529 1529
1506 1509 1510 1510 1509 1510 1508 1506 1486 1491 1491 1491 1492 1493 1494 1496 1497 1498 1500 1501 1503 1505 1506 1508 1510 1512 1514 1516 1517 1519 1520 1521 1522 1523 1523 1523 1524 1525 1525 1525 1525 1526 1526 1526 1526 1526 1526 1526 1526
1509 1511 1511 1511 1509 1509 1502 1500 1482 1483 1484 1484 1488 1490 1491 1492 1494 1495 1497 1498 1500 1501 1503 1504 1506 1508 1509 1511 1513 1515 1517 1518 1519 1520 1520 1521 1521 1521 1522 1522 1522 1522 1522 1522 1523 1523 1523 1522 1522
1508 1507 1507 1507 1506 1497 1502 1498 1482 1479 1483 1484 1485 1487 1488 1490 1491 1491 1493 1494 1496 1497 1499 1501 1502 1504 1506 1508 1510 1512 1513 1514 1516 1516 1517 1518 1518 1518 1518 1519 1518 1518 1518 1518 1519 1519 1519 1519 1519
1505 1502 1501 1498 1494 1490 1504 1493 1478 1483 1485 1485 1486 1486 1486 1487 1488 1489 1490 1491 1492 1494 1495 1497 1498 1500 1502 1504 1506 1508 1509 1510 1511 1512 1513 1514 1514 1515 1515 1515 1515 1514 1514 1515 1515 1514 1515 1515 1514
1504 1503 1503 1504 1507 1499 1486 1483 1480 1482 1483 1484 1484 1484 1484 1485 1485 1486 1487 1488 1489 1490 1492 1493 1495 1497 1499 1501 1502 1504 1505 1506 1507 1509 1510 1510 1511 1511 1511 1511 1511 1511 1511 1511 1511 1511 1511 1511 1511
1505 1503 1505 1503 1497 1488 1480 1478 1472 1476 1478 1480 1482 1482 1483 1483 1483 1484 1484 1485 1486 1488 1489 1491 1492 1494 1495 1497 1498 1500 1502 1503 1504 1505 1506 1507 1507 1507 1507 1507 1507 1507 1507 1507 1507 1507 1507 1507 1506
1506 1506 1502 1499 1496 1487 1479 1471 1474 1475 1477 1479 1480 1481 1481 1481 1482 1482 1482 1483 1483 1485 1486 1488 1489 1491 1492 1494 1495 1496 1498 1499 1500 1501 1502 1503 1503 1504 1504 1503 1503 1503 1503 1503 1503 1503 1503 1502 1502
1503 1500 1500 1497 1497 1494 1483 1475 1478 1479 1479 1480 1480 1480 1480 1480 1481 1480 1480 1480 1481 1482 1483 1485 1486 1487 1489 1490 1491 1493 1494 1495 1496 1497 1498 1499 1499 1499 1499 1499 1500 1500 1500 1499 1499 1499 1499 1499 1498